AirNav   Air Wisconsin Up To $57,000 Bonus
 
 1100 users online  

7F5 Canton-Hackney Airport
Canton, Texas, USA

GOING TO CANTON?


FAA INFORMATION EFFECTIVE 31 DECEMBER 2020

Location

FAA Identifier: 7F5
Lat/Long: 32-35-10.4820N 095-51-45.8770W
32-35.174700N 095-51.764617W
32.5862450,-95.8627436
(estimated)
Elevation: 500 ft. / 152 m (estimated)
Variation: 06E (1985)
From city: 2 miles N of CANTON, TX
Time zone: UTC -6 (UTC -5 during Daylight Saving Time)
Zip code: 75103

Airport Operations

Airport use: Open to the public
Activation date: 06/1968
Control tower: no
ARTCC: FORT WORTH CENTER
FSS: FORT WORTH FLIGHT SERVICE STATION
NOTAMs facility: FTW (NOTAM-D service available)
Attendance: UNATNDD
Wind indicator: yes
Segmented circle: no
Lights: SS-SR

Airport Communications

CTAF: 122.9

Nearby radio navigation aids

VOR radial/distance  VOR name  Freq  Var
TYRr295/27.0TYLER VOR/DME114.2006E
CQYr031/30.0CEDAR CREEK VORTAC114.8006E
FZTr325/35.0FRANKSTON VOR/DME111.4006E

 
NDB name  Hdg/Dist  Freq  Var  ID
TRAVIS112/22.126006EAVZ .- ...- --..
CROSSROADS001/31.721508ECSZ -.-. ... --..
MESQUITE109/36.224803EPQF .--. --.- ..-.
AMBASSADOR263/37.940407EABG .- -... --.

Airport Services

Airframe service: NONE
Powerplant service: NONE
Bottled oxygen: NONE
Bulk oxygen: NONE

Runway Information

Runway 18/36

Dimensions: 3750 x 50 ft. / 1143 x 15 m
Surface: asphalt, in poor condition
NMRS CRACKS, LOOSE STONES, & AGGREGATE, PVMNT PATCHES. VEGETATION GROWING THRU PVMNT.
Weight bearing capacity: 
Single wheel: 5.5
Runway edge lights: non-standard
NSTD LIRL; ONLY MIDDLE 1,200 FT OF RWY LGTD ON WEST SIDE ONLY
Runway edge markings: MARKINGS FADED, NSTD COLOR - WHITE & YELLOW.
NSTD SMALL RWY NRS; ONLY 35 FT HIGH. NO DSPLCD THLD MARKINGS.
RUNWAY 18  RUNWAY 36
Traffic pattern: leftleft
Displaced threshold: 103 ft.70 ft.
Markings: NSTD, in poor conditionNSTD, in poor condition
Obstructions: none
NMRS CLOSE-IN OBSTNS: 4 FT FENCE, 0 TO 125 FT DSTC, 72-125 FT R; 50 FT TREE, 104 FT DSTC, 60 FT R; 60 FT TREE, 0 FT DSTC, 60 FT R, 3 FT STEEL POSTS & C ABLE, 0-104 FT DSTC, 75 FT R.
15 ft. pline, marked, 200 ft. from runway
NMRSS CLOSE-IN OBSTNS: 15 FT PLINE, 190-199 FT DSTC, ACROSS ENTIRE APCH; TWO 15 FT ANTENNA TWRS, 184 FT DSTC, 39 FT L, & 55 FT R; 12 FT GOLF BALL, 150 FT DSTC, 124 FT L; 3 FT STEEL POSTS & CABLE, PARALLEL TO RWY, 0-199 FT DSTC, 77 FT L.

Airport Ownership and Management from official FAA records

Ownership: Publicly-owned
Owner: CITY OF CANTON
PO BOX 245
CANTON, TX 75103
Phone (903) 567-1841
Manager: WALT LEHMANN
PO BOX 245
CANTON, TX 75103
Phone (903) 288-0392
EMERGENCY PHONE: 903-567-4991.

Airport Operational Statistics

Aircraft operations: avg 50/month *
67% transient general aviation
33% local general aviation
* for 12-month period ending 30 March 2019

Additional Remarks

ARPT CLSD TO ACFT OVER 10,000 LBS.
RWY 18/36 +3 FT POSTS AND CABLE 75 FT FM RY CNTRLN WEST SIDE OF RWY.
RWY 18/36 NO LINE OF SIGHT BTN THLDS.
RWY 36 90 FT UNMARKED, UNLGTD ANT, 850 FT DSTC, 190 FT L, APCH RATIO 7:1.
FOR CD CTC FORT WORTH ARTCC AT 817-858-7584.

Instrument Procedures

There are no published instrument procedures at 7F5.

Some nearby airports with instrument procedures:

3F9 - Mineola Airport-Wisener Field (19 nm E)
KJDD - Wood County Airport - Collins Field (21 nm NE)
KTRL - Terrell Municipal Airport (22 nm W)
F44 - Athens Municipal Airport (25 nm S)
KTYR - Tyler Pounds Regional Airport (27 nm SE)
 
Loc | Ops | Rwys | IFR | FBO | Links
Com | Nav | Svcs | Stats | Notes

City of Fort Worth
 
Area around 7F5 (Canton-Hackney Airport)
 
Road maps at: MapQuest Bing Google
 
Aerial photo
WARNING: Photo may not be current or correct
Aerial photo of 7F5 (Canton-Hackney Airport)
Photo contributed by J. Herz

Do you have a better or more recent aerial photo of Canton-Hackney Airport that you would like to share? If so, please send us your photo.

 
Sectional chart

 
Airport distance calculator
Flying to Canton-Hackney Airport? Find the distance to fly.

From to 7F5

Sunrise and sunset
Times for 16-Jan-2021
 Local
(UTC-6)
 Zulu
(UTC)
Morning civil twilight07:0013:00
Sunrise07:2613:26
Sunset17:4023:40
Evening civil twilight18:0700:07

Current date and time
Zulu (UTC)  16-Jan-2021 15:14:01
Local (UTC-6)  16-Jan-2021 09:14:01
 
METAR
KJDD 
21nm NE 
161455Z AUTO 31005KT 10SM CLR 03/M05 A3014 RMK AO2
KTRL 
22nm W 
161453Z AUTO 29008KT 10SM CLR 03/M06 A3016 RMK AO2 SLP212 T00331056 53016
KF44 
25nm S 
161455Z AUTO 28003KT 10SM CLR 03/M03 A3014 RMK AO2
KTYR 
27nm SE 
161453Z AUTO 31007KT 10SM CLR 04/M06 A3014 RMK AO2 SLP205 T00391061 53015
KGVT 
31nm N 
161455Z AUTO 28005KT 10SM CLR 04/M03 A3015 RMK AO2
KHQZ 
35nm W 
161450Z 27007KT 10SM CLR 04/M07 A3016
KF46 
36nm NW 
161455Z AUTO 29006KT 10SM CLR 04/M06 A3015 RMK AO2 T00351059
KSLR 
37nm N 
161455Z AUTO 27008KT 10SM CLR 03/M05 A3015 RMK AO2 T00321047
TAF
KTYR 
27nm SE 
161120Z 1612/1712 27004KT P6SM SKC FM161500 29010KT P6SM SKC FM170300 25004KT P6SM SCT250 FM170700 22005KT P6SM BKN250
NOTAMs
Click for the latest NOTAMs
NOTAMs are issued by the DoD/FAA and will open in a separate window not controlled by AirNav.

 

 
 

Would you like to see your business listed on this page?

 If your business provides an interesting product or service to pilots, flight crews, aircraft, or users of the Canton-Hackney Airport, you should consider listing it here.  To start the listing process, click on the button below
 
Add a business
 

Other Pages about Canton-Hackney Airport

Update a link
 
Copyright © AirNav, LLC. All rights reserved. Privacy Policy  Contact